Santa Fe, NM

6:38 AM MST on January 18, 2017 (GMT -0700)
Santa Fe Municipal

Weather History for KSAF - August, 2014

Change the Weather History Date:

Saturday, August 16, 2014

  Actual Average Record
Temperature  
Mean Temperature 72 °F -  
Max Temperature 89 °F 82 °F 93 °F (2002)
Min Temperature 55 °F 51 °F 51 °F (1980)
Cooling Degree Days 7    
Growing Degree Days 22 (Base 50)    
Moisture  
Dew Point 46 °F    
Average Humidity 44    
Maximum Humidity 80    
Minimum Humidity 12    
Precipitation  
Precipitation 0.00 in - - ()
Sea Level Pressure  
Sea Level Pressure 29.95 in    
Wind  
Wind Speed 7 mph (North)    
Max Wind Speed 18 mph    
Max Gust Speed 24 mph    
Visibility 10 miles    
Events      
Averages and records for this station are not official NWS values.
T = Trace of Precipitation, MM = Missing Value Source: NWS Daily Summary

Daily Weather History Graph

Daily Weather History Graph

Search for Another Location

Airport or City:

Trip Planner

Search our weather history database for the weather conditions in past years. The results will help you decide how hot, cold, wet, or windy it might be!

Date:

Astronomy

Aug. 16, 2014 Rise Set
Actual Time 6:24 AM MDT 7:52 PM MDT
Civil Twilight 5:57 AM MDT 8:19 PM MDT
Nautical Twilight 5:24 AM MDT 8:51 PM MDT
Astronomical Twilight 4:50 AM MDT 9:25 PM MDT
Moon 11:53 PM MDT (8/16) 12:58 PM MDT (8/16)
Length of Visible Light 14h 22m
Length of Day
13h 28m
Waning Gibbous, 58% of the Moon is Illuminated
Aug 16
Waning Gibbous
Aug 17
Last Quarter
Aug 25
New
Sep 2
First Quarter
Sep 8
Full

Hourly Weather History & Observations

Time (MDT) Temp. Dew Point Humidity Pressure Visibility Wind Dir Wind Speed Gust Speed Precip Events Conditions
12:53 AM 64.0 °F 52.0 °F 65% 29.94 in 10.0 mi Calm Calm - N/A   Clear
1:53 AM 62.1 °F 51.1 °F 67% 29.94 in 10.0 mi Calm Calm - N/A   Scattered Clouds
2:53 AM 59.0 °F 51.1 °F 75% 29.99 in 10.0 mi NNW 4.6 mph - N/A   Clear
3:53 AM 61.0 °F 51.1 °F 70% 29.95 in 10.0 mi ENE 4.6 mph - N/A   Clear
4:53 AM 57.9 °F 50.0 °F 75% 29.96 in 10.0 mi Calm Calm - N/A   Clear
5:53 AM 55.0 °F 48.9 °F 80% 29.98 in 10.0 mi North 4.6 mph - N/A   Clear
6:53 AM 55.9 °F 50.0 °F 80% 30.00 in 10.0 mi North 4.6 mph - N/A   Clear
7:53 AM 63.0 °F 50.0 °F 63% 30.00 in 10.0 mi North 10.4 mph - N/A   Clear
8:53 AM 68.0 °F 48.9 °F 50% 29.99 in 10.0 mi North 12.7 mph - N/A   Clear
9:53 AM 73.0 °F 50.0 °F 44% 29.99 in 10.0 mi North 10.4 mph - N/A   Clear
10:53 AM 77.0 °F 50.0 °F 39% 29.98 in 10.0 mi North 10.4 mph - N/A   Clear
11:53 AM 82.0 °F 48.0 °F 30% 29.96 in 10.0 mi NNW 10.4 mph 17.3 mph N/A   Clear
12:53 PM 84.9 °F 42.1 °F 22% 29.93 in 10.0 mi North 13.8 mph 20.7 mph N/A   Clear
1:53 PM 88.0 °F 37.9 °F 17% 29.91 in 10.0 mi North 15.0 mph - N/A   Clear
2:53 PM 89.1 °F 30.0 °F 12% 29.90 in 10.0 mi NNW 11.5 mph 20.7 mph N/A   Clear
3:53 PM 81.0 °F 46.9 °F 30% 29.90 in 10.0 mi West 13.8 mph 21.9 mph N/A   Clear
4:53 PM 84.9 °F 42.1 °F 22% 29.88 in 10.0 mi WSW 11.5 mph - N/A   Clear
5:53 PM 84.9 °F 42.1 °F 22% 29.88 in 10.0 mi WSW 8.1 mph - N/A   Clear
6:29 PM 82.9 °F 42.1 °F 24% 30.18 in 10.0 mi ESE 16.1 mph - N/A   Clear
6:53 PM 81.0 °F 42.1 °F 25% 29.90 in 10.0 mi ESE 10.4 mph - N/A   Clear
7:53 PM 77.0 °F 42.1 °F 29% 29.93 in 10.0 mi WNW 18.4 mph 24.2 mph N/A   Mostly Cloudy
8:53 PM 75.0 °F 41.0 °F 29% 29.94 in 10.0 mi Variable 4.6 mph - N/A   Clear
9:53 PM 72.0 °F 43.0 °F 35% 29.94 in 10.0 mi ESE 6.9 mph - N/A   Clear
10:53 PM 72.0 °F 44.1 °F 37% 29.94 in 10.0 mi SE 13.8 mph - N/A   Clear
11:53 PM 69.1 °F 48.0 °F 47% 29.95 in 10.0 mi SSE 15.0 mph - N/A   Clear